| time (UTC) | temp F | wind direction | speed MPH | gust MPH | rain 1hr in | rain 24hr in | rain mn in | humidity % | barometer mb |
| 20260506190423 | 52 | 299 | 7.0 | 11.0 | 0.00 | 0.00 | 0.00 | 93 | 1023.6 |
| 20260506185422 | 51 | 273 | 4.0 | 10.0 | 0.00 | 0.00 | 0.00 | 93 | 1023.6 |
| 20260506184920 | 52 | 286 | 5.0 | 10.0 | 0.00 | 0.00 | 0.00 | 93 | 1023.7 |
| 20260506184422 | 51 | 276 | 7.0 | 10.0 | 0.00 | 0.00 | 0.00 | 93 | 1023.5 |
| 20260506183921 | 51 | 290 | 7.0 | 11.0 | 0.00 | 0.00 | 0.00 | 93 | 1023.5 |
| 20260506183421 | 51 | 276 | 6.0 | 12.0 | 0.00 | 0.00 | 0.00 | 93 | 1023.6 |
| 20260506182920 | 51 | 285 | 6.0 | 12.0 | 0.00 | 0.00 | 0.00 | 93 | 1023.4 |
| 20260506182427 | 51 | 262 | 7.0 | 12.0 | 0.00 | 0.00 | 0.00 | 93 | 1023.4 |
| 20260506181922 | 51 | 281 | 7.0 | 12.0 | 0.00 | 0.00 | 0.00 | 93 | 1023.5 |
| 20260506181422 | 51 | 269 | 6.0 | 11.0 | 0.00 | 0.00 | 0.00 | 93 | 1023.5 |
| 20260506180922 | 51 | 282 | 6.0 | 11.0 | 0.00 | 0.00 | 0.00 | 93 | 1023.4 |
| 20260506175914 | 51 | 290 | 6.0 | 11.0 | 0.00 | 0.00 | 0.00 | 93 | 1023.5 |
| 20260506175414 | 51 | 316 | 6.0 | 12.0 | 0.00 | 0.00 | 0.00 | 94 | 1023.4 |
| 20260506174914 | 51 | 286 | 5.0 | 12.0 | 0.00 | 0.00 | 0.00 | 94 | 1023.3 |
| 20260506173912 | 51 | 278 | 5.0 | 10.0 | 0.00 | 0.00 | 0.00 | 94 | 1023.2 |
| 20260506172911 | 51 | 271 | 4.0 | 8.0 | 0.00 | 0.00 | 0.00 | 94 | 1023.2 |
| 20260506172411 | 51 | 287 | 4.0 | 9.0 | 0.00 | 0.00 | 0.00 | 94 | 1023.1 |
| 20260506171910 | 51 | 261 | 4.0 | 9.0 | 0.00 | 0.00 | 0.00 | 95 | 1023.0 |
| 20260506171411 | 51 | 279 | 3.0 | 9.0 | 0.00 | 0.00 | 0.00 | 94 | 1023.1 |
| 20260506170907 | 51 | 291 | 1.0 | 5.0 | 0.00 | 0.00 | 0.00 | 95 | 1023.0 |
| 20260506170407 | 51 | 272 | 0.0 | 4.0 | 0.00 | 0.00 | 0.00 | 95 | 1022.9 |
| 20260506165906 | 51 | 253 | 1.0 | 5.0 | 0.00 | 0.00 | 0.00 | 95 | 1022.7 |
| 20260506165406 | 51 | 253 | 3.0 | 6.0 | 0.00 | 0.00 | 0.00 | 95 | 1022.7 |
| 20260506164407 | 51 | 288 | 5.0 | 9.0 | 0.00 | 0.00 | 0.00 | 94 | 1022.9 |
| 20260506163908 | 51 | 304 | 5.0 | 10.0 | 0.00 | 0.00 | 0.00 | 95 | 1022.9 |
| 20260506163406 | 51 | 262 | 5.0 | 10.0 | 0.00 | 0.00 | 0.00 | 95 | 1022.9 |
| 20260506162906 | 51 | 301 | 5.0 | 8.0 | 0.00 | 0.00 | 0.00 | 95 | 1022.8 |
| 20260506162404 | 51 | 289 | 5.0 | 8.0 | 0.00 | 0.00 | 0.00 | 95 | 1022.8 |
| 20260506161903 | 51 | 293 | 5.0 | 10.0 | 0.00 | 0.00 | 0.00 | 95 | 1022.9 |
| 20260506161404 | 51 | 290 | 5.0 | 10.0 | 0.00 | 0.00 | 0.00 | 95 | 1022.9 |
| 20260506160904 | 51 | 286 | 5.0 | 8.0 | 0.00 | 0.00 | 0.00 | 95 | 1023.1 |
| 20260506160404 | 51 | 309 | 4.0 | 7.0 | 0.00 | 0.00 | 0.00 | 95 | 1023.1 |
| 20260506155910 | 51 | 312 | 4.0 | 5.0 | 0.00 | 0.00 | 0.00 | 95 | 1023.1 |
| 20260506155402 | 51 | 315 | 5.0 | 6.0 | 0.00 | 0.00 | 0.00 | 95 | 1023.1 |
| 20260506154403 | 51 | 331 | 4.0 | 5.0 | 0.00 | 0.00 | 0.00 | 95 | 1022.9 |
| 20260506153907 | 51 | 303 | 4.0 | 6.0 | 0.00 | 0.00 | 0.00 | 95 | 1023.1 |
| 20260506153406 | 50 | 354 | 5.0 | 6.0 | 0.00 | 0.00 | 0.00 | 95 | 1023.1 |
| 20260506152404 | 50 | 329 | 3.0 | 5.0 | 0.00 | 0.00 | 0.00 | 95 | 1022.8 |
| 20260506151903 | 51 | 310 | 3.0 | 4.0 | 0.00 | 0.00 | 0.00 | 95 | 1022.7 |
| 20260506151403 | 50 | 304 | 3.0 | 4.0 | 0.00 | 0.00 | 0.00 | 95 | 1022.5 |
| 20260506150903 | 50 | 321 | 3.0 | 3.0 | 0.00 | 0.00 | 0.00 | 95 | 1022.4 |
| 20260506145905 | 50 | 41 | 3.0 | 4.0 | 0.00 | 0.00 | 0.00 | 95 | 1022.3 |
| 20260506144904 | 50 | 59 | 3.0 | 4.0 | 0.00 | 0.00 | 0.00 | 95 | 1022.3 |
| 20260506144406 | 50 | 64 | 2.0 | 4.0 | 0.00 | 0.00 | 0.00 | 95 | 1022.3 |
| 20260506143904 | 50 | 65 | 3.0 | 4.0 | 0.00 | 0.00 | 0.00 | 95 | 1022.4 |
| 20260506143403 | 50 | 65 | 3.0 | 4.0 | 0.00 | 0.00 | 0.00 | 95 | 1022.5 |
| 20260506142859 | 50 | 65 | 2.0 | 4.0 | 0.00 | 0.00 | 0.00 | 94 | 1022.5 |
| 20260506142401 | 51 | 101 | 0.0 | 2.0 | 0.00 | 0.00 | 0.00 | 94 | 1022.5 |
| 20260506141858 | 51 | 114 | 0.0 | 1.0 | 0.00 | 0.00 | 0.00 | 95 | 1022.5 |
| 20260506141358 | 51 | 114 | 1.0 | 3.0 | 0.00 | 0.00 | 0.00 | 94 | 1022.6 |
| 20260506140858 | 51 | 114 | 2.0 | 5.0 | 0.00 | 0.00 | 0.00 | 94 | 1022.3 |
| 20260506140356 | 51 | 84 | 3.0 | 5.0 | 0.00 | 0.00 | 0.00 | 94 | 1022.2 |
| 20260506135854 | 51 | 109 | 2.0 | 4.0 | 0.00 | 0.00 | 0.00 | 94 | 1022.1 |
| 20260506135358 | 51 | 82 | 1.0 | 3.0 | 0.00 | 0.00 | 0.00 | 94 | 1022.2 |
| 20260506134852 | 51 | 116 | 1.0 | 2.0 | 0.00 | 0.00 | 0.00 | 94 | 1022.2 |
| 20260506134350 | 51 | 107 | 2.0 | 3.0 | 0.00 | 0.00 | 0.00 | 94 | 1022.1 |
| 20260506133850 | 51 | 107 | 2.0 | 3.0 | 0.00 | 0.00 | 0.00 | 94 | 1022.1 |
| 20260506133350 | 51 | 117 | 2.0 | 3.0 | 0.00 | 0.00 | 0.00 | 94 | 1022.0 |
| 20260506132847 | 51 | 122 | 2.0 | 3.0 | 0.00 | 0.00 | 0.00 | 94 | 1022.0 |
| 20260506132346 | 51 | 115 | 2.0 | 3.0 | 0.00 | 0.00 | 0.00 | 93 | 1022.1 |
| 20260506131844 | 51 | 115 | 2.0 | 2.0 | 0.00 | 0.00 | 0.00 | 93 | 1022.0 |
| 20260506131342 | 51 | 115 | 1.0 | 2.0 | 0.00 | 0.00 | 0.00 | 93 | 1021.9 |
| 20260506130843 | 51 | 78 | 1.0 | 3.0 | 0.00 | 0.00 | 0.00 | 93 | 1022.0 |
| 20260506130342 | 51 | 78 | 1.0 | 3.0 | 0.00 | 0.00 | 0.00 | 93 | 1021.9 |
| 20260506125340 | 51 | 58 | 1.0 | 2.0 | 0.00 | 0.00 | 0.00 | 93 | 1022.1 |
| 20260506124836 | 51 | 70 | 1.0 | 4.0 | 0.00 | 0.00 | 0.00 | 93 | 1021.9 |
| 20260506124334 | 51 | 63 | 2.0 | 4.0 | 0.00 | 0.00 | 0.00 | 93 | 1021.8 |
| 20260506123835 | 51 | 287 | 1.0 | 3.0 | 0.00 | 0.00 | 0.00 | 93 | 1022.0 |
| 20260506123334 | 51 | 285 | 1.0 | 3.0 | 0.00 | 0.00 | 0.00 | 93 | 1022.1 |
| 20260506122834 | 51 | 282 | 0.0 | 2.0 | 0.00 | 0.00 | 0.00 | 93 | 1022.0 |
| 20260506122336 | 51 | 44 | 0.0 | 1.0 | 0.00 | 0.00 | 0.00 | 93 | 1021.9 |
| 20260506121834 | 51 | 44 | 0.0 | 1.0 | 0.00 | 0.00 | 0.00 | 93 | 1021.8 |
| 20260506121331 | 51 | 44 | 0.0 | 2.0 | 0.00 | 0.00 | 0.00 | 93 | 1021.8 |
| 20260506120832 | 51 | 44 | 2.0 | 4.0 | 0.00 | 0.00 | 0.00 | 93 | 1022.0 |
| 20260506120329 | 51 | 65 | 3.0 | 5.0 | 0.00 | 0.00 | 0.00 | 93 | 1021.9 |
| 20260506115828 | 51 | 67 | 3.0 | 5.0 | 0.00 | 0.00 | 0.00 | 93 | 1021.7 |
| 20260506115326 | 51 | 63 | 2.0 | 4.0 | 0.00 | 0.00 | 0.00 | 93 | 1021.7 |
| 20260506114827 | 51 | 46 | 2.0 | 3.0 | 0.00 | 0.00 | 0.00 | 93 | 1021.9 |
| 20260506114323 | 51 | 49 | 2.0 | 3.0 | 0.00 | 0.00 | 0.00 | 93 | 1021.8 |
| 20260506113322 | 51 | 49 | 3.0 | 3.0 | 0.00 | 0.00 | 0.00 | 93 | 1021.7 |
| 20260506112821 | 51 | 49 | 2.0 | 3.0 | 0.00 | 0.00 | 0.00 | 93 | 1021.7 |
| 20260506112323 | 51 | 49 | 1.0 | 3.0 | 0.00 | 0.00 | 0.00 | 92 | 1021.6 |
| 20260506111816 | 51 | 208 | 0.0 | 2.0 | 0.00 | 0.00 | 0.00 | 93 | 1021.5 |
| 20260506111315 | 51 | 208 | 0.0 | 0.0 | 0.00 | 0.00 | 0.00 | 93 | 1021.4 |
| 20260506110310 | 51 | 208 | 0.0 | 1.0 | 0.00 | 0.00 | 0.00 | 93 | 1021.4 |
| 20260506105810 | 51 | 208 | 1.0 | 2.0 | 0.00 | 0.00 | 0.00 | 93 | 1021.2 |
| 20260506105309 | 51 | 208 | 1.0 | 2.0 | 0.00 | 0.00 | 0.00 | 93 | 1021.2 |
| 20260506104809 | 51 | 140 | 1.0 | 2.0 | 0.00 | 0.00 | 0.00 | 93 | 1021.1 |
| 20260506104305 | 51 | 140 | 1.0 | 1.0 | 0.00 | 0.00 | 0.00 | 93 | 1021.0 |
| 20260506103304 | 51 | 140 | 2.0 | 2.0 | 0.00 | 0.00 | 0.00 | 93 | 1021.0 |
| 20260506102804 | 51 | 139 | 2.0 | 4.0 | 0.00 | 0.00 | 0.00 | 92 | 1020.8 |
| 20260506102305 | 51 | 137 | 3.0 | 4.0 | 0.00 | 0.00 | 0.00 | 92 | 1020.8 |
| 20260506101803 | 51 | 132 | 3.0 | 4.0 | 0.00 | 0.00 | 0.00 | 92 | 1020.8 |
| 20260506100801 | 51 | 120 | 3.0 | 4.0 | 0.00 | 0.00 | 0.00 | 92 | 1020.8 |
| 20260506100301 | 51 | 131 | 3.0 | 4.0 | 0.00 | 0.00 | 0.00 | 92 | 1020.8 |
| 20260506095759 | 51 | 140 | 2.0 | 4.0 | 0.00 | 0.00 | 0.00 | 91 | 1020.7 |
| 20260506095300 | 51 | 142 | 2.0 | 3.0 | 0.00 | 0.00 | 0.00 | 91 | 1020.7 |
| 20260506094758 | 51 | 143 | 3.0 | 5.0 | 0.00 | 0.00 | 0.00 | 91 | 1020.7 |
| 20260506094256 | 51 | 156 | 3.0 | 5.0 | 0.00 | 0.00 | 0.00 | 91 | 1020.7 |
| 20260506093757 | 51 | 208 | 2.0 | 4.0 | 0.00 | 0.00 | 0.00 | 91 | 1020.7 |
| 20260506093256 | 51 | 152 | 2.0 | 4.0 | 0.00 | 0.00 | 0.00 | 91 | 1020.7 |
| 20260506092256 | 51 | 146 | 2.0 | 3.0 | 0.00 | 0.00 | 0.00 | 91 | 1020.7 |
| 20260506091257 | 51 | 146 | 2.0 | 4.0 | 0.00 | 0.00 | 0.00 | 91 | 1020.7 |
| 20260506090756 | 51 | 203 | 1.0 | 4.0 | 0.00 | 0.00 | 0.00 | 91 | 1020.7 |
| 20260506085756 | 51 | 215 | 1.0 | 3.0 | 0.00 | 0.00 | 0.00 | 91 | 1020.5 |
| 20260506085251 | 51 | 268 | 2.0 | 4.0 | 0.00 | 0.00 | 0.00 | 91 | 1020.6 |
| 20260506084747 | 51 | 221 | 2.0 | 4.0 | 0.00 | 0.00 | 0.00 | 91 | 1020.5 |
| 20260506084237 | 51 | 212 | 2.0 | 4.0 | 0.00 | 0.00 | 0.00 | 91 | 1020.6 |
| 20260506083732 | 51 | 274 | 2.0 | 5.0 | 0.00 | 0.00 | 0.00 | 91 | 1020.4 |
| 20260506083227 | 51 | 264 | 2.0 | 5.0 | 0.00 | 0.00 | 0.00 | 91 | 1020.5 |
| 20260506082719 | 51 | 249 | 1.0 | 3.0 | 0.00 | 0.00 | 0.00 | 91 | 1020.5 |
| 20260506082213 | 51 | 262 | 1.0 | 3.0 | 0.00 | 0.00 | 0.00 | 91 | 1020.4 |
| 20260506081710 | 51 | 235 | 1.0 | 3.0 | 0.00 | 0.00 | 0.00 | 90 | 1020.4 |
| 20260506081201 | 51 | 203 | 1.0 | 3.0 | 0.00 | 0.00 | 0.00 | 90 | 1020.3 |
| 20260506080153 | 51 | 224 | 1.0 | 3.0 | 0.00 | 0.00 | 0.00 | 90 | 1020.3 |
| 20260506073114 | 51 | 193 | 1.0 | 4.0 | 0.00 | 0.00 | 0.00 | 90 | 1019.7 |
| 20260506072607 | 51 | 122 | 2.0 | 7.0 | 0.00 | 0.00 | 0.00 | 90 | 1019.8 |
| 20260506072102 | 51 | 284 | 4.0 | 8.0 | 0.00 | 0.00 | 0.00 | 90 | 1019.8 |
| 20260506071603 | 52 | 256 | 6.0 | 8.0 | 0.00 | 0.00 | 0.00 | 90 | 1019.6 |
| 20260506071101 | 52 | 252 | 6.0 | 10.0 | 0.00 | 0.00 | 0.00 | 90 | 1019.6 |
| 20260506070603 | 52 | 269 | 6.0 | 10.0 | 0.00 | 0.00 | 0.00 | 90 | 1019.6 |
| 20260506062053 | 52 | 273 | 9.0 | 16.0 | 0.00 | 0.00 | 0.00 | 89 | 1019.4 |
| 20260506061552 | 52 | 304 | 8.0 | 16.0 | 0.00 | 0.00 | 0.00 | 89 | 1019.4 |
| 20260506061049 | 52 | 275 | 8.0 | 14.0 | 0.00 | 0.00 | 0.00 | 89 | 1019.2 |
| 20260506051042 | 53 | 257 | 10.0 | 16.0 | 0.00 | 0.00 | 0.00 | 88 | 1019.2 |
| 20260506050541 | 53 | 293 | 9.0 | 16.0 | 0.00 | 0.00 | 0.00 | 88 | 1019.1 |
| 20260506045040 | 53 | 283 | 9.0 | 15.0 | 0.00 | 0.00 | 0.00 | 88 | 1019.0 |
| 20260506044035 | 53 | 278 | 9.0 | 13.0 | 0.00 | 0.00 | 0.00 | 87 | 1019.0 |
| 20260506043537 | 53 | 285 | 8.0 | 12.0 | 0.00 | 0.00 | 0.00 | 87 | 1019.0 |
| 20260506043037 | 53 | 266 | 7.0 | 12.0 | 0.00 | 0.00 | 0.00 | 87 | 1018.9 |
| 20260506042534 | 54 | 275 | 7.0 | 11.0 | 0.00 | 0.00 | 0.00 | 87 | 1018.9 |
| 20260506042035 | 54 | 289 | 7.0 | 11.0 | 0.00 | 0.00 | 0.00 | 87 | 1018.7 |
| 20260506041535 | 54 | 261 | 6.0 | 10.0 | 0.00 | 0.00 | 0.00 | 86 | 1018.6 |
| 20260506041035 | 54 | 278 | 6.0 | 9.0 | 0.00 | 0.00 | 0.00 | 86 | 1018.6 |
| 20260506040535 | 54 | 257 | 5.0 | 9.0 | 0.00 | 0.00 | 0.00 | 86 | 1018.4 |
| 20260506035535 | 55 | 293 | 6.0 | 11.0 | 0.00 | 0.00 | 0.00 | 85 | 1018.4 |
| 20260506035035 | 55 | 266 | 6.0 | 11.0 | 0.00 | 0.00 | 0.00 | 85 | 1018.5 |
| 20260506034535 | 55 | 278 | 6.0 | 9.0 | 0.00 | 0.00 | 0.00 | 85 | 1018.4 |
| 20260506033535 | 55 | 277 | 5.0 | 8.0 | 0.00 | 0.00 | 0.00 | 84 | 1018.3 |
| 20260506033034 | 56 | 281 | 6.0 | 9.0 | 0.00 | 0.00 | 0.00 | 84 | 1018.2 |
| 20260506032531 | 56 | 262 | 6.0 | 10.0 | 0.00 | 0.00 | 0.00 | 84 | 1018.1 |
| 20260506031531 | 56 | 286 | 6.0 | 10.0 | 0.00 | 0.00 | 0.00 | 83 | 1018.2 |
| 20260506031033 | 56 | 288 | 6.0 | 11.0 | 0.00 | 0.00 | 0.00 | 83 | 1018.3 |
| 20260506030031 | 57 | 268 | 7.0 | 11.0 | 0.00 | 0.00 | 0.00 | 82 | 1018.3 |
| 20260506025529 | 57 | 296 | 6.0 | 11.0 | 0.00 | 0.00 | 0.00 | 81 | 1018.2 |
| 20260506025029 | 58 | 278 | 6.0 | 10.0 | 0.00 | 0.00 | 0.00 | 81 | 1018.3 |
| 20260506024530 | 58 | 272 | 6.0 | 10.0 | 0.00 | 0.00 | 0.00 | 81 | 1018.3 |
| 20260506024033 | 58 | 284 | 5.0 | 9.0 | 0.00 | 0.00 | 0.00 | 80 | 1018.1 |
| 20260506023529 | 58 | 278 | 5.0 | 10.0 | 0.00 | 0.00 | 0.00 | 80 | 1018.1 |
| 20260506023029 | 58 | 279 | 5.0 | 10.0 | 0.00 | 0.00 | 0.00 | 80 | 1018.1 |
| 20260506022529 | 58 | 287 | 6.0 | 10.0 | 0.00 | 0.00 | 0.00 | 80 | 1018.2 |
| 20260506021531 | 59 | 257 | 6.0 | 10.0 | 0.00 | 0.00 | 0.00 | 80 | 1018.2 |
| 20260506021030 | 59 | 291 | 5.0 | 11.0 | 0.00 | 0.00 | 0.00 | 79 | 1018.2 |
| 20260506020027 | 59 | 282 | 7.0 | 12.0 | 0.00 | 0.00 | 0.00 | 79 | 1018.1 |
| 20260506015526 | 59 | 305 | 7.0 | 12.0 | 0.00 | 0.00 | 0.00 | 79 | 1018.1 |
| 20260506015028 | 59 | 284 | 7.0 | 12.0 | 0.00 | 0.00 | 0.00 | 79 | 1018.1 |
| 20260506014528 | 59 | 293 | 7.0 | 12.0 | 0.00 | 0.00 | 0.00 | 78 | 1018.2 |
| 20260506014027 | 59 | 259 | 8.0 | 14.0 | 0.00 | 0.00 | 0.00 | 79 | 1018.2 |
| 20260506013527 | 59 | 245 | 8.0 | 14.0 | 0.00 | 0.00 | 0.00 | 79 | 1018.3 |
| 20260506013027 | 59 | 283 | 7.0 | 14.0 | 0.00 | 0.00 | 0.00 | 79 | 1018.1 |
| 20260506012526 | 60 | 270 | 7.0 | 14.0 | 0.00 | 0.00 | 0.00 | 78 | 1018.3 |
| 20260506012027 | 60 | 248 | 8.0 | 14.0 | 0.00 | 0.00 | 0.00 | 79 | 1018.2 |
| 20260506011526 | 60 | 277 | 8.0 | 14.0 | 0.00 | 0.00 | 0.00 | 78 | 1018.2 |
| 20260506011026 | 60 | 262 | 8.0 | 13.0 | 0.00 | 0.00 | 0.00 | 78 | 1018.3 |
| 20260506010026 | 60 | 267 | 7.0 | 12.0 | 0.00 | 0.00 | 0.00 | 77 | 1018.3 |
| 20260506005027 | 60 | 267 | 5.0 | 10.0 | 0.00 | 0.00 | 0.00 | 78 | 1018.3 |
| 20260506004527 | 60 | 77 | 6.0 | 12.0 | 0.00 | 0.00 | 0.00 | 79 | 1018.3 |
| 20260506004020 | 60 | 283 | 6.0 | 12.0 | 0.00 | 0.00 | 0.00 | 77 | 1018.4 |
| 20260506003521 | 61 | 260 | 4.0 | 9.0 | 0.00 | 0.00 | 0.00 | 78 | 1018.4 |
| 20260506003023 | 61 | 295 | 4.0 | 10.0 | 0.00 | 0.00 | 0.00 | 78 | 1018.4 |
| 20260506002522 | 61 | 248 | 4.0 | 10.0 | 0.00 | 0.00 | 0.00 | 77 | 1018.3 |
| 20260506002021 | 61 | 312 | 5.0 | 10.0 | 0.00 | 0.00 | 0.00 | 79 | 1018.4 |
| 20260506001521 | 60 | 273 | 5.0 | 10.0 | 0.00 | 0.00 | 0.00 | 78 | 1018.3 |
| 20260506001018 | 61 | 275 | 5.0 | 10.0 | 0.00 | 0.00 | 0.00 | 79 | 1018.5 |
| 20260505235519 | 60 | 301 | 4.0 | 11.0 | 0.00 | 0.00 | 0.00 | 79 | 1018.6 |
| 20260505235018 | 60 | 288 | 4.0 | 8.0 | 0.00 | 0.00 | 0.00 | 80 | 1018.7 |
| 20260505233519 | 60 | 228 | 7.0 | 10.0 | 0.00 | 0.00 | 0.00 | 81 | 1018.7 |
| 20260505232519 | 59 | 357 | 6.0 | 9.0 | 0.00 | 0.00 | 0.00 | 82 | 1018.8 |
| 20260505232019 | 59 | 345 | 6.0 | 8.0 | 0.00 | 0.00 | 0.00 | 83 | 1018.8 |
| 20260505231524 | 59 | 354 | 6.0 | 9.0 | 0.00 | 0.00 | 0.00 | 83 | 1018.8 |
| 20260505231015 | 59 | 344 | 7.0 | 9.0 | 0.00 | 0.00 | 0.00 | 84 | 1018.8 |
| 20260505230510 | 58 | 343 | 6.0 | 8.0 | 0.00 | 0.00 | 0.00 | 83 | 1018.9 |
| 20260505230003 | 59 | 331 | 6.0 | 9.0 | 0.00 | 0.00 | 0.00 | 83 | 1019.0 |
| 20260505225459 | 58 | 326 | 7.0 | 10.0 | 0.00 | 0.00 | 0.00 | 83 | 1019.0 |
| 20260505224953 | 58 | 315 | 8.0 | 10.0 | 0.00 | 0.00 | 0.00 | 84 | 1019.1 |
| 20260505224447 | 58 | 323 | 8.0 | 10.0 | 0.00 | 0.00 | 0.00 | 85 | 1019.1 |
| 20260505223938 | 57 | 335 | 9.0 | 11.0 | 0.00 | 0.00 | 0.00 | 85 | 1019.2 |
| 20260505223442 | 57 | 326 | 9.0 | 11.0 | 0.00 | 0.00 | 0.00 | 85 | 1019.2 |
| 20260505222928 | 58 | 323 | 9.0 | 11.0 | 0.00 | 0.00 | 0.00 | 85 | 1019.2 |
| 20260505222421 | 57 | 313 | 9.0 | 11.0 | 0.00 | 0.00 | 0.00 | 86 | 1019.2 |
| 20260505221915 | 57 | 335 | 9.0 | 10.0 | 0.00 | 0.00 | 0.00 | 86 | 1019.2 |
| 20260505221407 | 57 | 316 | 9.0 | 11.0 | 0.00 | 0.00 | 0.00 | 86 | 1019.3 |
| 20260505220906 | 57 | 333 | 8.0 | 10.0 | 0.00 | 0.00 | 0.00 | 86 | 1019.3 |
| 20260505220405 | 57 | 329 | 8.0 | 10.0 | 0.00 | 0.00 | 0.00 | 86 | 1019.4 |
| 20260505215904 | 57 | 347 | 8.0 | 11.0 | 0.00 | 0.00 | 0.00 | 87 | 1019.5 |
| 20260505215401 | 56 | 321 | 8.0 | 11.0 | 0.00 | 0.00 | 0.00 | 87 | 1019.5 |
| 20260505214901 | 56 | 321 | 8.0 | 10.0 | 0.00 | 0.00 | 0.00 | 87 | 1019.6 |
| 20260505214402 | 56 | 0 | 8.0 | 10.0 | 0.00 | 0.00 | 0.00 | 88 | 1019.6 |
| 20260505213401 | 56 | 336 | 8.0 | 10.0 | 0.00 | 0.00 | 0.00 | 88 | 1019.7 |
| 20260505212858 | 56 | 359 | 8.0 | 10.0 | 0.00 | 0.00 | 0.00 | 87 | 1019.7 |
| 20260505212358 | 56 | 332 | 9.0 | 10.0 | 0.00 | 0.00 | 0.00 | 88 | 1019.8 |
| 20260505211858 | 56 | 313 | 8.0 | 10.0 | 0.00 | 0.00 | 0.00 | 88 | 1019.8 |
| 20260505211357 | 56 | 342 | 8.0 | 10.0 | 0.00 | 0.00 | 0.00 | 88 | 1019.8 |
| 20260505210858 | 56 | 328 | 8.0 | 10.0 | 0.00 | 0.00 | 0.00 | 88 | 1019.8 |
| 20260505210357 | 56 | 331 | 8.0 | 10.0 | 0.00 | 0.00 | 0.00 | 88 | 1019.8 |
| 20260505205857 | 56 | 346 | 8.0 | 9.0 | 0.00 | 0.00 | 0.00 | 88 | 1019.8 |
| 20260505205357 | 56 | 332 | 7.0 | 9.0 | 0.00 | 0.00 | 0.00 | 88 | 1019.7 |
| 20260505204856 | 56 | 324 | 7.0 | 9.0 | 0.00 | 0.00 | 0.00 | 88 | 1019.9 |
| 20260505204400 | 56 | 331 | 7.0 | 9.0 | 0.00 | 0.00 | 0.00 | 88 | 1019.9 |
| 20260505203857 | 55 | 341 | 7.0 | 9.0 | 0.00 | 0.00 | 0.00 | 88 | 1019.9 |
| 20260505202858 | 55 | 319 | 6.0 | 8.0 | 0.00 | 0.00 | 0.00 | 89 | 1019.9 |
| 20260505202357 | 55 | 321 | 6.0 | 8.0 | 0.00 | 0.00 | 0.00 | 88 | 1019.9 |
| 20260505201855 | 55 | 335 | 6.0 | 7.0 | 0.00 | 0.00 | 0.00 | 89 | 1019.9 |
| 20260505201355 | 55 | 329 | 6.0 | 7.0 | 0.00 | 0.00 | 0.00 | 89 | 1019.9 |
| 20260505200856 | 55 | 326 | 6.0 | 7.0 | 0.00 | 0.00 | 0.00 | 89 | 1019.8 |
| 20260505195854 | 55 | 338 | 7.0 | 8.0 | 0.00 | 0.00 | 0.00 | 89 | 1019.8 |
| 20260505193856 | 55 | 313 | 7.0 | 10.0 | 0.00 | 0.00 | 0.00 | 90 | 1019.7 |
| 20260505193353 | 54 | 314 | 8.0 | 10.0 | 0.00 | 0.00 | 0.00 | 90 | 1019.8 |
| 20260505192854 | 54 | 312 | 7.0 | 10.0 | 0.00 | 0.00 | 0.00 | 90 | 1019.8 |
| 20260505192348 | 54 | 317 | 6.0 | 8.0 | 0.00 | 0.00 | 0.00 | 90 | 1019.7 |
| 20260505191850 | 54 | 347 | 6.0 | 8.0 | 0.00 | 0.00 | 0.00 | 90 | 1019.7 |
| 20260505191352 | 54 | 322 | 6.0 | 8.0 | 0.00 | 0.00 | 0.00 | 90 | 1019.7 |